Jonesville, VA

10:09 AM EDT on September 26, 2017 (GMT -0400)
Jonesville

Weather History for K0VG - March, 2014

Change the Weather History Date:

Wednesday, March 12, 2014

  Actual Average (KLNP) Record (KLNP)
Temperature  
Mean Temperature 48 °F -  
Max Temperature 64 °F 49 °F 77 °F (2016)
Min Temperature 32 °F 31 °F 1 °F (1999)
Degree Days  
Heating Degree Days 16    
Moisture  
Dew Point 42 °F    
Average Humidity 79    
Maximum Humidity 100    
Minimum Humidity 42    
Precipitation  
Precipitation 0.18 in - - ()
Sea Level Pressure  
Sea Level Pressure 29.60 in    
Wind  
Wind Speed 6 mph (West)    
Max Wind Speed 24 mph    
Max Gust Speed 37 mph    
Visibility 9 miles    
Events Rain , Snow    
Averages and records for this station are not official NWS values.
T = Trace of Precipitation, MM = Missing Value Source: NWS Daily Summary

Daily Weather History Graph

Daily Weather History Graph

Search for Another Location

Airport or City:

Trip Planner

Search our weather history database for the weather conditions in past years. The results will help you decide how hot, cold, wet, or windy it might be!

Date:

Astronomy

Mar. 12, 2014 Rise Set
Actual Time 7:48 AM EDT 7:37 PM EDT
Civil Twilight 7:22 AM EDT 8:03 PM EDT
Nautical Twilight 6:52 AM EDT 8:33 PM EDT
Astronomical Twilight 6:22 AM EDT 9:03 PM EDT
Moon 4:11 PM EDT (3/12) 5:14 AM EDT (3/12)
Length of Visible Light 12h 40m
Length of Day
11h 49m
Waxing Gibbous, 85% of the Moon is Illuminated
Mar 12
Waxing Gibbous
Mar 16
Full
Mar 23
Last Quarter
Mar 30
New
Apr 7
First Quarter

Hourly Weather History & Observations

Time (EDT) Temp. Windchill Dew Point Humidity Pressure Visibility Wind Dir Wind Speed Gust Speed Precip Events Conditions
12:08 AM - - - N/A% 29.71 in 10.0 mi North - - N/A   Unknown
12:30 AM 48.2 °F - 41.0 °F 76% 29.70 in 10.0 mi Calm Calm - N/A   Unknown
1:00 AM - - - N/A% - 10.0 mi SE 3.5 mph - N/A   Unknown
1:01 AM - - - N/A% - 10.0 mi SE 3.5 mph - N/A   Unknown
1:02 AM - - - N/A% - 10.0 mi SE 3.5 mph - N/A   Unknown
1:20 AM - - - N/A% - 10.0 mi Calm Calm - N/A   Unknown
1:22 AM - - - N/A% - 10.0 mi Calm Calm - N/A   Unknown
1:35 AM 48.2 °F - 41.0 °F 76% - - Calm Calm - N/A   Mostly Cloudy
2:25 AM - - - N/A% - 10.0 mi Calm Calm - N/A   Unknown
2:26 AM - - - N/A% - 10.0 mi Calm Calm - N/A   Unknown
2:41 AM - - - N/A% - 10.0 mi Calm Calm - N/A   Unknown
2:42 AM - - - N/A% - 10.0 mi Calm Calm - N/A   Unknown
2:55 AM 64.4 °F - 41.0 °F 42% 29.61 in - Calm Calm - N/A   Unknown
3:15 AM - - - N/A% 29.60 in 10.0 mi North - - N/A   Unknown
3:35 AM 51.8 °F - 42.8 °F 71% 29.59 in - Calm Calm - N/A   Unknown
4:00 AM - - - N/A% - 10.0 mi Calm Calm - N/A   Unknown
4:03 AM - - - N/A% - 10.0 mi Calm Calm - N/A   Unknown
4:04 AM - - - N/A% - 10.0 mi Calm Calm - N/A   Unknown
4:22 AM - - - N/A% - 10.0 mi Calm Calm - N/A   Unknown
4:23 AM - - - N/A% - 10.0 mi Calm Calm - N/A   Unknown
4:24 AM - - - N/A% - 10.0 mi Calm Calm - N/A   Unknown
4:35 AM 51.8 °F - 44.6 °F 76% 29.57 in 10.0 mi North - - N/A   Unknown
5:00 AM - - - N/A% - 10.0 mi Calm Calm - N/A   Unknown
5:02 AM - - - N/A% - 10.0 mi Calm Calm - N/A   Unknown
5:03 AM - - - N/A% - 10.0 mi Calm Calm - N/A   Unknown
5:25 AM - - - N/A% - 10.0 mi Calm Calm - N/A   Unknown
5:26 AM - - - N/A% - 10.0 mi Calm Calm - N/A   Unknown
5:30 AM - - - N/A% - 10.0 mi SW 3.5 mph - N/A   Unknown
5:50 AM 57.2 °F - 48.2 °F 72% - - SW 4.6 mph - N/A   Overcast
6:15 AM - - - N/A% - 10.0 mi WSW 8.1 mph - N/A   Overcast
6:55 AM 57.2 °F - 55.4 °F 94% 29.52 in 8.0 mi North - - 0.01 in Rain Light Rain
7:20 AM 57.2 °F - 55.4 °F 94% 29.52 in 5.0 mi North - - 0.01 in Rain Light Rain
8:10 AM - - - N/A% - 10.0 mi SW 15.0 mph 19.6 mph N/A   Overcast
8:35 AM 59.0 °F - 57.2 °F 94% 29.49 in 7.0 mi SW 12.7 mph - N/A   Overcast
8:50 AM 57.2 °F - 57.2 °F 100% 29.48 in 2.0 mi SW 11.5 mph - N/A Rain Light Rain
9:21 AM 59.0 °F - 57.2 °F 94% 29.48 in 10.0 mi SW 9.2 mph - N/A   Mostly Cloudy
9:22 AM 59.0 °F - 57.2 °F 94% 29.48 in 10.0 mi SW 9.2 mph - N/A   Mostly Cloudy
9:35 AM - - - N/A% 29.47 in - SW 11.5 mph - N/A   Mist
10:35 AM 59.0 °F - 59.0 °F 100% - 9.0 mi SW 13.8 mph 20.7 mph N/A   Mostly Cloudy
10:50 AM 59.0 °F - 59.0 °F 100% 29.45 in 10.0 mi North - - N/A   Overcast
11:15 AM 62.6 °F - 59.0 °F 88% - 10.0 mi SW 19.6 mph 24.2 mph N/A   Mostly Cloudy
11:35 AM 62.6 °F - 57.2 °F 82% 29.43 in 10.0 mi SW 17.3 mph 23.0 mph N/A   Mostly Cloudy
11:55 AM 62.6 °F - 57.2 °F 82% 29.41 in 9.0 mi SW 18.4 mph 27.6 mph N/A   Mostly Cloudy
12:10 PM 62.6 °F - 57.2 °F 82% 29.41 in 10.0 mi SW 17.3 mph 27.6 mph N/A   Mostly Cloudy
12:35 PM - - - N/A% - 10.0 mi WSW 18.4 mph 23.0 mph N/A   Scattered Clouds
12:55 PM 60.8 °F - 59.0 °F 94% 29.42 in 1.5 mi North - - 0.11 in Rain Heavy Rain
1:15 PM 55.4 °F - 51.8 °F 88% 29.46 in 10.0 mi WNW 23.0 mph 34.5 mph N/A   Mostly Cloudy
1:42 PM - - - N/A% - 10.0 mi West 21.9 mph 36.8 mph N/A   Overcast
1:43 PM - - - N/A% - 10.0 mi West 21.9 mph 36.8 mph N/A   Overcast
1:44 PM - - - N/A% - 10.0 mi West 21.9 mph 36.8 mph N/A   Overcast
1:55 PM 53.6 °F - 46.4 °F 77% 29.48 in - West 24.2 mph 32.2 mph N/A   Overcast
2:15 PM 51.8 °F - 44.6 °F 76% 29.51 in 10.0 mi North - - N/A   Mostly Cloudy
2:43 PM 48.2 °F - 41.0 °F 76% 29.54 in 10.0 mi WNW 19.6 mph 27.6 mph N/A   Overcast
2:45 PM 48.2 °F - 41.0 °F 76% 29.54 in 10.0 mi WNW 19.6 mph 27.6 mph N/A   Overcast
2:46 PM 48.2 °F - 41.0 °F 76% 29.54 in 10.0 mi WNW 19.6 mph 27.6 mph N/A   Overcast
2:55 PM 44.6 °F - 37.4 °F 76% 29.57 in 10.0 mi North - - N/A   Overcast
3:08 PM 44.6 °F - 37.4 °F 76% 29.57 in 10.0 mi North - - N/A   Overcast
3:35 PM 44.6 °F - 37.4 °F 76% - 9.0 mi North - - N/A   Overcast
3:58 PM 44.6 °F - 35.6 °F 71% 29.61 in 10.0 mi North - - N/A   Overcast
4:10 PM 42.8 °F 35.1 °F 33.8 °F 70% 29.64 in 10.0 mi NW 16.1 mph 25.3 mph N/A   Mostly Cloudy
5:00 PM - - - N/A% - 10.0 mi WNW 11.5 mph 18.4 mph N/A   Partly Cloudy
5:01 PM - - - N/A% - 10.0 mi WNW 11.5 mph 18.4 mph N/A   Partly Cloudy
5:03 PM - - - N/A% - 10.0 mi WNW 11.5 mph 18.4 mph N/A   Partly Cloudy
5:10 PM 44.6 °F - 32.0 °F 61% 29.70 in 10.0 mi North - - N/A   Mostly Cloudy
5:35 PM 41.0 °F 35.2 °F 32.0 °F 70% 29.73 in 10.0 mi West 9.2 mph 19.6 mph N/A   Overcast
5:55 PM - - - N/A% - 7.0 mi WNW 10.4 mph 23.0 mph N/A Rain Light Rain
6:55 PM 37.4 °F - 32.0 °F 81% - 8.0 mi North - - N/A   Overcast
8:00 PM 35.6 °F 28.0 °F 30.2 °F 81% 29.81 in 10.0 mi WNW 10.4 mph 16.1 mph 0.02 in Rain Light Rain
8:02 PM 35.6 °F 28.0 °F 30.2 °F 81% 29.81 in 10.0 mi WNW 10.4 mph 16.1 mph 0.02 in Rain Light Rain
8:18 PM 35.6 °F - 32.0 °F 87% 29.83 in 4.0 mi North - - N/A   Overcast
9:00 PM - - - N/A% - 1.5 mi NNW 10.4 mph 16.1 mph N/A   Unknown
9:02 PM - - - N/A% - 1.5 mi NNW 10.4 mph 16.1 mph N/A   Unknown
9:04 PM - - - N/A% - 1.5 mi NNW 10.4 mph 16.1 mph N/A   Unknown
9:21 PM 33.8 °F 22.2 °F 26.6 °F 75% 29.88 in 10.0 mi NW 20.7 mph 25.3 mph N/A Snow Light Snow
9:23 PM 33.8 °F 22.2 °F 26.6 °F 75% 29.88 in 10.0 mi NW 20.7 mph 25.3 mph N/A Snow Light Snow
9:24 PM 33.8 °F 22.2 °F 26.6 °F 75% 29.88 in 10.0 mi NW 20.7 mph 25.3 mph N/A Snow Light Snow
9:40 PM 33.8 °F 23.9 °F 26.6 °F 75% - 5.0 mi NW 15.0 mph 19.6 mph N/A Snow Light Snow
9:42 PM 33.8 °F 23.9 °F 26.6 °F 75% - 5.0 mi NW 15.0 mph 19.6 mph N/A Snow Light Snow
10:15 PM - - - N/A% - 5.0 mi NW 13.8 mph 20.7 mph N/A   Unknown
10:35 PM 46.4 °F 42.4 °F 26.6 °F 46% 29.91 in - NW 8.1 mph 17.3 mph 0.03 in   Overcast
10:55 PM - - - N/A% - 6.0 mi North - - N/A   Unknown
11:35 PM - - - N/A% - 10.0 mi North - - N/A Rain Light Rain
11:55 PM 32.0 °F 23.0 °F 23.0 °F 69% - 10.0 mi NNW 11.5 mph 19.6 mph N/A   Overcast